Regional Weather Roundup
Issued by NWS Jackson, KY

Home | Current Version | Previous Version | Graphics & Text | Print | Product List | Glossary On
Versions: 1 2 3 4 5 6 7 8 9 10 11 12 13 14 15 16 17 18 19 20 21 22 23 24 25 26 27 28 29 30 31 32 33 34 35 36 37 38 39 40 41 42 43 44 45 46 47 48 49 50
000
ASUS43 KJKL 080510
RWRJKL

EAST KENTUCKY HOURLY WEATHER ROUNDUP
NATIONAL WEATHER SERVICE JACKSON KY
1200 AM EST MON FEB 08 2016

NOTE: "FAIR" INDICATES FEW OR NO CLOUDS BELOW 12,000 FEET WITH
NO SIGNIFICANT WEATHER AND/OR OBSTRUCTIONS TO VISIBILITY.

* THESE REPORTS ARE NOT UNDER NWS QUALITY CONTROL AND MAY NOT
  REPORT WEATHER SUCH AS PRECIPITATION AND FOG.

KYZ079-080-083-085-087-088-110-112-115-119-120-080600
...EASTERN KENTUCKY...

CITY           SKY/WX    TMP DP  RH WIND       PRES   REMARKS
JACKSON        CLOUDY    42  20  41 SW3       29.85F
LONDON         PTCLDY    40  20  44 S5        29.86F
SOMERSET*      PTCLDY    39  23  52 S5        29.88F
MONTICELLO*    MOCLDY    41  23  48 W13       29.88F
WILLIAMSBURG*  PTCLDY    41  21  45 SW5       29.88F
MIDDLESBORO*   PTCLDY    30  27  86 CALM      29.91F
HARLAN APT*      N/A     32  27  80 CALM      29.89F
HAZARD APT*    PTCLDY   N/A N/A N/A CALM      29.86
BLACK MTN*       N/A     32  21  64 SW3         N/A
BIG SANDY*     MOCLDY    41  23  48 SW5       29.85F
MOREHEAD APT*  CLOUDY    43  19  39 S8        29.84F
$$

KYZ035-036-041-042-044-050-067-078-099-080600
...CENTRAL KENTUCKY...

CITY           SKY/WX    TMP DP  RH WIND       PRES   REMARKS
MT STERLING*   CLOUDY    41  25  52 SW6       29.83F
DANVILLE*      CLOUDY    41  25  52 SW6       29.85F
RICHMOND*      CLOUDY    45  21  39 S8        29.83F
LEXINGTON      CLOUDY    43  23  45 S9        29.81F
FRANKFORT      CLOUDY    44  22  41 SW7       29.79F
$$

KYZ091>093-OHZ055-061-077-WVZ005-015-034-035-042-080600
...SOUTHERN OHIO/WEST VIRGINIA...

CITY           SKY/WX    TMP DP  RH WIND       PRES   REMARKS
COVINGTON      CLOUDY    45  22  40 S9        29.76F
COLUMBUS       CLOUDY    43  20  39 SW5       29.78F
DAYTON         CLOUDY    44  25  47 S8        29.75F
WILMINGTON     CLOUDY    42  26  53 S7G21     29.76F
HUNTINGTON       N/A     35  25  66 SE3       29.84F
CHARLESTON     MOCLDY    35  25  66 CALM      29.84F
PINEVILLE*       N/A     28  24  84 MISG      29.91F
BECKLEY          N/A     30  20  66 SE3       29.84F
$$

VAZ002-007-008-TNZ017-027-036-066-071-080600
...SOUTHWEST VIRGINIA/EAST TENNESSEE...

CITY           SKY/WX    TMP DP  RH WIND       PRES   REMARKS
BRISTOL        PTCLDY    29  24  82 CALM      29.90F
KNOXVILLE      CLOUDY    39  25  57 S5        29.92F
OAK RIDGE      CLOUDY    36  28  73 CALM      29.92F
CROSSVILLE     PTCLDY    41  19  41 SW6       29.90F
NASHVILLE      CLOUDY    47  22  37 SW8       29.89F
$$

...KEY TO REMARKS...
VSB - VISIBILITY IN MILES
WCI - WIND CHILL INDEX
HX  - HEAT INDEX

$$



USA.gov is the U.S. government's official web portal to all federal, state and local government web resources and services.